Volver al catálogo

CZ-6A LOWER FAIRING HALF

ActivoPO
NORAD 65548·DEBRIS·🇨🇳 China
Este nombre de satélite aún no ha sido confirmado por fuentes oficiales.

Lanzado Sep 6, 2025 desde Taiyuan Satellite Launch Center

Loading…

Próximos Pases (próximas 24 horas)

TLE

ActualizadoSource: Space-Track

Época: Sep 14, 2026, 16:26 UTC

1 65548U 25199E   26257.68477677  .00000204  00000-0  75392-4 0  9994
2 65548  85.9950 359.8516 0013571 145.8802 214.3265 14.27219108 53161

Sigue CZ-6A LOWER FAIRING HALF en tiempo real con AllMySat

Download on the App Store